Simultaneous Nadir Overpasses (SNOs) Predictions

Prediction of SNOs between GOES-15 and NOAA-20 Satellite Orbit:

Table of predicted SNOs for the next 14.0 days since TLE Epoch: 4/27/2024
Index Date Time (GOES-15) GOES-15 Lat,Lon NOAA-20 Lat,Lon Distance(km) Time Diff (sec)
1 04/27/2024 09:12:50 -0.09, 61.39 0.39, 63.37 227.33 80
2 04/28/2024 21:31:56 0.07, 61.39 0.81, 58.11 373.24 80
3 04/29/2024 21:15:49 0.08, 61.40 -0.18, 62.65 141.94 80
4 05/01/2024 09:35:04 -0.07, 61.45 -1.00, 57.35 467.69 80
5 05/02/2024 09:18:57 -0.08, 61.47 -0.00, 61.89 47.30 80
6 05/04/2024 21:19:17 0.08, 61.50 0.13, 61.15 39.08 80
7 05/05/2024 21:03:10 0.08, 61.52 -0.88, 65.69 475.98 80
8 05/07/2024 09:22:24 -0.07, 61.57 -0.32, 60.40 134.06 80
9 05/08/2024 09:06:17 -0.07, 61.60 0.69, 64.93 380.43 80
10 05/09/2024 21:25:23 0.05, 61.62 0.48, 59.67 222.11 80
11 05/10/2024 21:09:16 0.06, 61.65 -0.54, 64.20 292.28 80
